Weather History for Hutchinson, MN

Change the Weather History Date:

Thursday, July 12, 2012

  Actual Average Record
Temperature  
Mean Temperature 72 °F -  
Max Temperature 81 °F 83 °F 98 °F (1980)
Min Temperature 64 °F 62 °F 44 °F (1975)
Cooling Degree Days 8    
Growing Degree Days 22 (Base 50)    
Moisture  
Dew Point 65 °F    
Average Humidity 75    
Maximum Humidity 94    
Minimum Humidity 60    
Precipitation  
Precipitation 0.00 in - - ()
Sea Level Pressure  
Sea Level Pressure 30.00 in    
Wind  
Wind Speed 4 mph (SSE)    
Max Wind Speed 14 mph    
Max Gust Speed 20 mph    
Visibility 10 miles    
Events Rain    
Averages and records for this station are not official NWS values.
T = Trace of Precipitation, MM = Missing Value Source: NWS Daily Summary

Daily Weather History Graph

Daily Weather History Graph

Search for Another Location

Airport:

Trip Planner

Search our weather history database for the weather conditions in past years. The results will help you decide how hot, cold, wet, or windy it might be!

Date:

Astronomy

Jul. 12, 2012 Rise Set
Actual Time 5:43 AM CDT 9:02 PM CDT
Civil Twilight 5:07 AM CDT 9:38 PM CDT
Nautical Twilight 4:20 AM CDT 10:25 PM CDT
Astronomical Twilight 3:21 AM CDT 11:23 PM CDT
Moon 12:53 AM CDT (7/12) 3:32 PM CDT (7/12)
Length of Visible Light 16h 31m
Length of Day
15h 19m
Waning Crescent, 35% of the Moon is Illuminated
Jul 12
Waning Crescent
Jul 18
New
Jul 26
First Quarter
Aug 1
Full
Aug 9
Last Quarter

Hourly Weather History & Observations

Time (CDT) Temp. Heat Index Dew Point Humidity Pressure Visibility Wind Dir Wind Speed Gust Speed Precip Events Conditions
12:11 AM 69.3 °F - 63.5 °F 82% 30.04 in 10.0 mi Calm Calm - N/A   Clear
12:30 AM 69.3 °F - 63.7 °F 82% 30.04 in 10.0 mi SE 4.6 mph - N/A   Clear
12:50 AM 66.7 °F - 61.9 °F 84% 30.04 in 10.0 mi SE 3.5 mph - N/A   Clear
1:11 AM 64.0 °F - 60.6 °F 89% 30.04 in 10.0 mi SE 3.5 mph - N/A   Clear
1:30 AM 66.7 °F - 62.2 °F 85% 30.04 in 10.0 mi SE 3.5 mph - N/A   Clear
1:50 AM 66.6 °F - 61.7 °F 84% 30.04 in 10.0 mi SE 4.6 mph - N/A   Clear
2:10 AM 66.7 °F - 62.2 °F 85% 30.04 in 10.0 mi SE 4.6 mph - N/A   Clear
2:31 AM 66.7 °F - 61.7 °F 84% 30.03 in 10.0 mi SE 4.6 mph - N/A   Clear
2:50 AM 64.4 °F - 60.8 °F 88% 30.02 in 10.0 mi SE 3.5 mph - N/A   Clear
3:11 AM 65.1 °F - 61.0 °F 86% 30.04 in 10.0 mi Calm Calm - N/A   Clear
3:13 AM 64.6 °F - 60.3 °F 86% 30.04 in 10.0 mi Calm Calm - N/A   Clear
3:55 AM 64.4 °F - 60.8 °F 88% 30.03 in 10.0 mi Calm Calm - N/A   Clear
4:10 AM 64.4 °F - 60.8 °F 88% 30.03 in 10.0 mi Calm Calm - N/A   Clear
4:30 AM 64.4 °F - 60.8 °F 88% 30.03 in 10.0 mi Calm Calm - N/A   Clear
4:50 AM 64.4 °F - 59.0 °F 83% 30.03 in 10.0 mi Calm Calm - N/A   Clear
5:10 AM 64.4 °F - 60.8 °F 88% 30.02 in 10.0 mi South 4.6 mph - N/A   Clear
5:30 AM 64.4 °F - 59.0 °F 83% 30.02 in 10.0 mi South 4.6 mph - N/A   Clear
5:50 AM 64.4 °F - 59.0 °F 83% 30.02 in 10.0 mi SSE 3.5 mph - N/A   Clear
6:10 AM 66.2 °F - 60.8 °F 83% 30.03 in 10.0 mi South 3.5 mph - N/A   Clear
6:30 AM 64.4 °F - 59.0 °F 83% 30.03 in 10.0 mi Calm Calm - N/A   Clear
6:50 AM 68.0 °F - 60.8 °F 78% 30.03 in 10.0 mi Calm Calm - N/A   Clear
7:10 AM 69.8 °F - 62.6 °F 78% 30.04 in 10.0 mi SSE 4.6 mph - N/A   Clear
7:30 AM 69.8 °F - 60.8 °F 73% 30.03 in 10.0 mi SE 5.8 mph - N/A   Clear
7:50 AM 71.6 °F - 62.6 °F 73% 30.03 in 10.0 mi South 4.6 mph - N/A   Clear
8:15 AM 73.4 °F - 62.6 °F 69% 30.02 in 10.0 mi SSE 5.8 mph - N/A   Clear
8:35 AM 73.4 °F - 64.4 °F 73% 30.04 in 10.0 mi SSW 5.8 mph - N/A   Clear
8:51 AM 74.3 °F - 63.5 °F 69% 30.04 in 10.0 mi South 4.6 mph - N/A   Clear
9:11 AM 74.3 °F - 64.6 °F 72% 30.04 in 10.0 mi South 5.8 mph - N/A   Clear
9:31 AM 74.3 °F - 64.0 °F 70% 30.04 in 10.0 mi South 5.8 mph - N/A   Clear
9:55 AM 77.0 °F - 64.4 °F 65% 30.02 in 10.0 mi SSE 6.9 mph - N/A   Clear
10:10 AM 77.0 °F - 63.9 °F 64% 30.02 in 10.0 mi South 8.1 mph - N/A   Clear
10:31 AM 77.0 °F - 63.7 °F 63% 30.01 in 10.0 mi SSE 8.1 mph - N/A   Clear
10:50 AM 79.3 °F - 66.0 °F 64% 30.00 in 10.0 mi SSE 9.2 mph - N/A   Clear
11:11 AM 79.3 °F - 65.3 °F 62% 30.00 in 10.0 mi SE 13.8 mph - N/A   Clear
11:30 AM 80.6 °F 82.8 °F 66.6 °F 62% 30.00 in 10.0 mi SSE 12.7 mph 19.6 mph N/A   Clear
11:51 AM 81.1 °F 83.2 °F 66.2 °F 60% 29.98 in 10.0 mi SE 12.7 mph 18.4 mph N/A   Clear
12:11 PM 81.0 °F 83.0 °F 65.8 °F 60% 29.99 in 10.0 mi SE 11.5 mph 17.3 mph N/A   Clear
12:30 PM 80.6 °F 82.8 °F 66.4 °F 62% 30.00 in 10.0 mi SSE 8.1 mph - N/A   Clear
12:51 PM 79.3 °F - 65.5 °F 62% 30.00 in 10.0 mi SE 8.1 mph - N/A   Clear
1:10 PM 79.3 °F - 66.9 °F 66% 30.01 in 10.0 mi SE 4.6 mph - N/A Rain Light Rain
1:31 PM 79.3 °F - 66.2 °F 64% 30.01 in 10.0 mi South 8.1 mph - N/A   Scattered Clouds
1:51 PM 79.3 °F - 66.2 °F 64% 30.01 in 10.0 mi South 6.9 mph - N/A   Scattered Clouds
2:10 PM 79.3 °F - 67.8 °F 68% 30.00 in 10.0 mi SSE 4.6 mph - N/A   Light Drizzle
2:31 PM 79.3 °F - 68.2 °F 69% 30.00 in 10.0 mi SSE 3.5 mph - N/A   Scattered Clouds
2:50 PM 79.3 °F - 68.9 °F 70% 30.00 in 10.0 mi SSE 3.5 mph - N/A   Scattered Clouds
3:11 PM 79.3 °F - 68.7 °F 70% 30.00 in 10.0 mi South 4.6 mph - N/A   Scattered Clouds
3:31 PM 79.3 °F - 68.9 °F 70% 30.00 in 10.0 mi South 4.6 mph - N/A   Scattered Clouds
3:51 PM 79.3 °F - 69.1 °F 71% 29.99 in 10.0 mi SSE 3.5 mph - N/A Rain Light Rain
4:11 PM 79.3 °F - 69.1 °F 71% 29.99 in 10.0 mi SSE 4.6 mph - N/A   Scattered Clouds
4:30 PM 79.3 °F - 68.7 °F 70% 29.98 in 10.0 mi SSE 5.8 mph - N/A   Scattered Clouds
4:51 PM 79.3 °F - 68.4 °F 69% 29.98 in 10.0 mi SSE 4.6 mph - N/A   Scattered Clouds
5:11 PM 80.6 °F 83.6 °F 69.1 °F 68% 29.97 in 10.0 mi SSE 6.9 mph - N/A   Scattered Clouds
5:31 PM 80.6 °F 83.6 °F 69.3 °F 68% 29.97 in 10.0 mi SSE 6.9 mph - N/A   Scattered Clouds
5:50 PM 80.6 °F 83.9 °F 69.8 °F 70% 29.97 in 10.0 mi SSE 4.6 mph - N/A   Scattered Clouds
6:11 PM 80.6 °F 83.6 °F 69.1 °F 68% 29.96 in 10.0 mi South 6.9 mph - N/A   Mostly Cloudy
6:30 PM 80.6 °F 83.8 °F 69.4 °F 69% 29.96 in 10.0 mi SSE 4.6 mph - N/A   Mostly Cloudy
6:50 PM 79.9 °F - 69.4 °F 70% 29.96 in 10.0 mi SSE 4.6 mph - N/A   Scattered Clouds
7:11 PM 80.6 °F 83.9 °F 70.0 °F 70% 29.96 in 10.0 mi SE 4.6 mph - N/A   Mostly Cloudy
7:30 PM 81.1 °F 84.7 °F 70.2 °F 69% 29.95 in 10.0 mi Calm Calm - N/A   Scattered Clouds
7:51 PM 79.9 °F - 69.8 °F 71% 29.95 in 10.0 mi Calm Calm - N/A   Clear
8:11 PM 79.3 °F - 70.0 °F 73% 29.95 in 10.0 mi SSE 4.6 mph - N/A   Clear
8:31 PM 79.3 °F - 70.2 °F 73% 29.96 in 10.0 mi Calm Calm - N/A   Mostly Cloudy
8:51 PM 77.0 °F - 68.4 °F 75% 29.95 in 10.0 mi Calm Calm - N/A   Scattered Clouds
9:10 PM 77.0 °F - 69.4 °F 77% 29.96 in 10.0 mi Calm Calm - N/A   Clear
9:18 PM 77.0 °F - 69.8 °F 78% 29.96 in 10.0 mi SSE 3.5 mph - N/A   Clear
9:50 PM 73.4 °F - 69.8 °F 88% 29.96 in 10.0 mi Calm Calm - N/A   Clear
10:10 PM 71.6 °F - 68.0 °F 88% 29.96 in 10.0 mi Calm Calm - N/A   Clear
10:55 PM 69.8 °F - 68.0 °F 94% 29.96 in 10.0 mi Calm Calm - N/A   Clear
11:30 PM 69.8 °F - 68.0 °F 94% 29.97 in 10.0 mi Calm Calm - N/A   Clear
11:50 PM 69.8 °F - 68.0 °F 94% 29.97 in 10.0 mi Calm Calm - N/A   Clear